Preview of NWS' New Version of Forecast
This preview is not operational and should not be used for support decisions.

Regional Weather Roundup (RWR)

Issued by National Weather Service (NWS)

                            
000
ASUS45 KCYS 180910
RWRWY 

WYOMING REGIONAL WEATHER ROUNDUP
NATIONAL WEATHER SERVICE CHEYENNE WY
200 AM MST MON FEB 18 2019

NOTE:  "FAIR" INDICATES FEW OR NO CLOUDS BELOW 12,000 FEET
WITH NO SIGNIFICANT WEATHER AND/OR OBSTRUCTIONS TO VISIBILITY.

WYZ001-181000-
YELLOWSTONE NATIONAL PARK
  
CITY           SKY/WX    TMP DP  RH WIND       PRES   REMARKS
LK YELLOWSTONE   N/A    -14 -20  74 CALM      29.87S                  
W YELLOWSTONE  NOT AVBL                                               

$$
WYZ002>013-054>058-071-098>099-181000-
NORTHERN WYOMING
  
CITY           SKY/WX    TMP DP  RH WIND       PRES   REMARKS
JACKSON        FAIR       0  -4  83 NE5       29.92S WCI -10          
CODY           FLURRIES   2  -2  83 N8        30.11F WCI -12          
GREYBULL       CLOUDY     6   0  76 CALM      30.20F                  
WORLAND        CLOUDY     8   1  73 NE7       30.17F WCI  -3          
SHERIDAN       CLOUDY    -4  -8  83 CALM      30.25F                  
BUFFALO        FAIR      -1  -7  75 CALM      30.12F                  
GILLETTE       FAIR      -4  -9  79 NW5       30.21F WCI -15          
HULETT         LGT SNOW  -4  -9  77 MISG      30.23                   
NEWCASTLE        N/A     -6 -13  71 NW7       30.23  WCI -20          

$$
WYZ014>020-022>026-101>103-181000-
CENTRAL WYOMING
  
CITY           SKY/WX    TMP DP  RH WIND       PRES   REMARKS
BIG PINEY      FAIR     -16 -20  82 E5        29.90S WCI -29          
PINEDALE       FAIR     -17 -22  76 NW8       29.91  WCI -34          
DUBOIS         LGT SNOW   5   1  85 SE8       29.91  WCI  -8          
LANDER         CLOUDY    11   5  77 NE3       30.03S                  
RIVERTON       CLOUDY     8   2  76 NE7       30.04F WCI  -3          
CASPER         CLOUDY     1  -5  75 NE7       30.11S WCI -12          
DOUGLAS        FAIR      -3  -8  79 NW6       30.17R WCI -15          

$$
WYZ021-027>030-104>119-181000-
SOUTHERN WYOMING
  
CITY           SKY/WX    TMP DP  RH WIND       PRES   REMARKS
EVANSTON       LGT SNOW   8   3  80 E21       29.82S WCI -12          
KEMMERER       FAIR       7   1  78 NE17      29.85  WCI -12          
FORT BRIDGER   FLURRIES   5   3  92 S8        29.89R WCI  -8          
ROCK SPRINGS   CLOUDY     4   0  83 NE12      29.89F WCI -12          
DIXON          FAIR       6  -3  67 NE13      29.87S WCI -11          
RAWLINS        CLOUDY     6   3  87 NE15      29.92S WCI -12          
SARATOGA       FAIR       3   3 100 W6        29.89S WCI  -8          
LARAMIE        LGT SNOW   4   2  91 SE16      29.88S FOG     WCI -15  
CHEYENNE       CLOUDY     3  -1  83 N6        30.02S WCI  -8          
TORRINGTON     FAIR       0  -6  76 N5        30.21F WCI -10          
PINE BLUFFS    CLOUDY     3  -4  72 MISG      30.13R                  

$$